TimeCEST,TemperatureF,Dew PointF,Humidity,Sea Level PressureIn,VisibilityMPH,Wind Direction,Wind SpeedMPH,Gust SpeedMPH,PrecipitationIn,Events,Conditions,WindDirDegrees,DateUTC
12:00 AM,55.4,46.4,72,30.09,-9999.0,ENE,4.6,-,N/A,,Clear,60,2013-05-25 22:00:00
12:30 AM,53.6,46.4,77,30.09,-9999.0,Variable,2.3,-,N/A,,Clear,0,2013-05-25 22:30:00
1:00 AM,51.8,46.4,82,30.12,-9999.0,ENE,5.8,-,N/A,,Clear,60,2013-05-25 23:00:00
1:30 AM,51.8,46.4,82,30.12,-9999.0,NE,5.8,-,N/A,,Clear,50,2013-05-25 23:30:00
2:00 AM,51,46,79,30.12,12,ESE,2.3,,,,,110,2013-05-26 00:00:00
2:00 AM,51.8,46.4,82,30.12,-9999.0,NE,8.1,-,N/A,,Clear,50,2013-05-26 00:00:00
2:30 AM,51.8,48.2,88,30.12,-9999.0,ENE,4.6,-,N/A,,Clear,60,2013-05-26 00:30:00
3:00 AM,50.0,46.4,87,30.09,-9999.0,ENE,5.8,-,N/A,,Clear,70,2013-05-26 01:00:00
3:30 AM,50.0,46.4,87,30.12,-9999.0,ENE,5.8,-,N/A,,Clear,70,2013-05-26 01:30:00
4:00 AM,50.0,46.4,87,30.09,-9999.0,ENE,3.5,-,N/A,,Clear,70,2013-05-26 02:00:00
4:30 AM,50.0,46.4,87,30.09,-9999.0,ENE,5.8,-,N/A,,Clear,60,2013-05-26 02:30:00
5:00 AM,50.0,46.4,87,30.09,-9999.0,Variable,2.3,-,N/A,,Clear,0,2013-05-26 03:00:00
5:30 AM,48.2,44.6,87,30.09,-9999.0,NE,3.5,-,N/A,,Clear,40,2013-05-26 03:30:00
6:00 AM,48.2,44.6,87,30.09,6.2,ENE,4.6,-,N/A,,Partly Cloudy,60,2013-05-26 04:00:00
6:30 AM,48.2,46.4,93,30.09,6.2,Variable,1.2,-,N/A,,Partly Cloudy,0,2013-05-26 04:30:00
7:00 AM,50.0,48.2,94,30.09,6.2,Variable,2.3,-,N/A,,Scattered Clouds,0,2013-05-26 05:00:00
7:30 AM,51.8,48.2,88,30.12,6.2,Variable,1.2,-,N/A,,Scattered Clouds,0,2013-05-26 05:30:00
8:00 AM,54,49,78,30.12,16,ENE,1.2,,,,Scattered Clouds,70,2013-05-26 06:00:00
8:00 AM,55.4,50.0,82,30.12,6.2,NE,5.8,-,N/A,,Partly Cloudy,50,2013-05-26 06:00:00
8:30 AM,59.0,51.8,77,30.12,6.2,Variable,2.3,-,N/A,,Partly Cloudy,0,2013-05-26 06:30:00
9:00 AM,62.6,51.8,68,30.12,6.2,East,3.5,-,N/A,,Partly Cloudy,90,2013-05-26 07:00:00
9:30 AM,62.6,48.2,59,30.12,6.2,SE,9.2,-,N/A,,Partly Cloudy,140,2013-05-26 07:30:00
10:00 AM,66.2,48.2,52,30.12,6.2,SSE,10.4,21.9,N/A,,Scattered Clouds,150,2013-05-26 08:00:00
10:30 AM,64.4,50.0,59,30.12,6.2,South,11.5,-,N/A,,Scattered Clouds,190,2013-05-26 08:30:00
11:00 AM,66.2,48.2,52,30.12,6.2,SSE,8.1,-,N/A,,Scattered Clouds,150,2013-05-26 09:00:00
11:30 AM,66.2,48.2,52,30.12,6.2,SSW,8.1,-,N/A,,Scattered Clouds,200,2013-05-26 09:30:00
12:00 PM,68.0,48.2,49,30.12,6.2,Variable,6.9,18.4,N/A,,Scattered Clouds,0,2013-05-26 10:00:00
12:30 PM,69.8,50.0,49,30.12,6.2,South,8.1,-,N/A,,Scattered Clouds,180,2013-05-26 10:30:00
1:00 PM,66.2,50.0,56,30.12,6.2,South,10.4,-,N/A,,Scattered Clouds,170,2013-05-26 11:00:00
1:30 PM,66.2,50.0,56,30.12,6.2,South,10.4,-,N/A,,Scattered Clouds,180,2013-05-26 11:30:00
2:00 PM,68,49,39,30.11,17,SW,16.1,,,,Mostly Cloudy,220,2013-05-26 12:00:00
2:00 PM,68.0,50.0,52,30.09,6.2,South,8.1,-,N/A,,Mostly Cloudy,170,2013-05-26 12:00:00
2:30 PM,68.0,51.8,56,30.09,6.2,South,9.2,-,N/A,,Mostly Cloudy,190,2013-05-26 12:30:00
3:00 PM,68.0,50.0,52,30.09,6.2,SW,15.0,-,N/A,,Scattered Clouds,230,2013-05-26 13:00:00
3:30 PM,68.0,50.0,52,30.09,6.2,SSW,9.2,-,N/A,,Scattered Clouds,200,2013-05-26 13:30:00
4:00 PM,68.0,50.0,52,30.06,6.2,South,9.2,-,N/A,,Scattered Clouds,180,2013-05-26 14:00:00
4:30 PM,68.0,50.0,52,30.06,6.2,SSE,10.4,-,N/A,,Scattered Clouds,160,2013-05-26 14:30:00
5:00 PM,68.0,51.8,56,30.04,6.2,South,8.1,-,N/A,,Partly Cloudy,180,2013-05-26 15:00:00
5:30 PM,69.8,48.2,46,30.04,6.2,SSE,9.2,-,N/A,,Partly Cloudy,160,2013-05-26 15:30:00
6:00 PM,69.8,50.0,49,30.04,6.2,South,9.2,-,N/A,,Partly Cloudy,170,2013-05-26 16:00:00
6:30 PM,68.0,50.0,52,30.04,6.2,SSE,11.5,-,N/A,,Partly Cloudy,160,2013-05-26 16:30:00
7:00 PM,68.0,50.0,52,30.01,6.2,South,10.4,-,N/A,,Partly Cloudy,180,2013-05-26 17:00:00
7:30 PM,66.2,50.0,56,30.01,6.2,SSE,10.4,-,N/A,,Partly Cloudy,150,2013-05-26 17:30:00
8:00 PM,66,48,41,30.02,16,SSE,9.2,,,,Scattered Clouds,150,2013-05-26 18:00:00
8:00 PM,66.2,48.2,52,30.01,6.2,SSE,11.5,-,N/A,,Partly Cloudy,150,2013-05-26 18:00:00
8:30 PM,64.4,50.0,59,30.01,6.2,SE,6.9,-,N/A,,Partly Cloudy,140,2013-05-26 18:30:00
9:00 PM,64.4,48.2,56,30.01,6.2,ESE,5.8,-,N/A,,Partly Cloudy,120,2013-05-26 19:00:00
9:30 PM,62.6,50.0,63,30.01,6.2,ESE,3.5,-,N/A,,Partly Cloudy,110,2013-05-26 19:30:00
10:00 PM,62.6,50.0,63,30.01,6.2,East,2.3,-,N/A,,Partly Cloudy,100,2013-05-26 20:00:00
10:30 PM,59.0,50.0,72,30.01,6.2,ENE,3.5,-,N/A,,Partly Cloudy,70,2013-05-26 20:30:00
11:00 PM,57.2,50.0,77,30.01,6.2,NE,3.5,-,N/A,,Partly Cloudy,40,2013-05-26 21:00:00
11:30 PM,57.2,50.0,77,30.01,6.2,NE,5.8,-,N/A,,Partly Cloudy,40,2013-05-26 21:30:00